Location: Unspecified
(0.0000°N, 0.0000°E)
Time: 08:52:32
(UTC+00:00)

Vanguard 2 Rocket - All Passes

Search period start: 23 May 2017 00:00
Search period end: 02 June 2017 00:00
Orbit: 553 x 3328 km, 32.9° (Epoch: 22 May)

Date Brightness Start Highest point End Pass type
(mag) Time Alt. Az. Time Alt. Az. Time Alt. Az.
23 May - 03:30:28 10° SSW 03:34:37 29° SE 03:40:41 10° E visible
23 May - 05:42:00 10° WSW 05:48:06 49° NNW 05:58:42 10° NE daylight
23 May - 07:58:19 10° WNW 08:05:34 20° NNW 08:15:42 10° NNE daylight
23 May - 10:18:44 10° NNW 10:27:41 16° N 10:38:07 10° NE daylight
23 May - 12:36:32 10° NNW 12:51:47 26° NNE 13:06:27 10° ENE daylight
23 May - 14:53:25 10° NW 15:13:06 55° NNE 15:27:09 10° ESE daylight
23 May - 17:12:49 10° WNW 17:30:43 65° SW 17:41:20 10° SE daylight
23 May - 19:38:32 10° WSW 19:45:38 17° SW 19:50:58 10° S visible
24 May - 02:33:36 10° SSE 02:35:38 13° SE 02:37:54 10° ESE visible
24 May - 04:43:02 10° WSW 04:48:17 74° NNW 04:57:23 10° NE visible
24 May - 06:57:44 10° WNW 07:04:11 24° NNW 07:13:47 10° NNE daylight
24 May - 09:17:22 10° NNW 09:24:29 15° N 09:33:11 10° NNE daylight
24 May - 11:35:35 10° NNW 11:48:18 21° NNE 12:01:56 10° ENE daylight
24 May - 13:51:50 10° NW 14:10:40 44° NNE 14:26:03 10° E daylight
24 May - 16:09:52 10° NW 16:29:41 87° SW 16:42:10 10° SE daylight
24 May - 18:32:53 10° W 18:45:27 30° SW 18:53:41 10° SSE visible
25 May - 03:44:29 10° SW 03:49:00 62° SE 03:56:10 10° ENE visible
25 May - 05:57:44 10° W 06:03:27 29° NNW 06:12:25 10° NNE daylight
25 May - 08:16:06 10° NW 08:22:00 15° N 08:29:24 10° NNE daylight
25 May - 10:34:57 10° NNW 10:44:48 17° NNE 10:56:07 10° NE daylight
25 May - 12:50:44 10° NNW 13:07:49 35° NNE 13:23:48 10° E daylight
25 May - 15:07:33 10° NW 15:28:02 74° NE 15:42:22 10° ESE daylight
25 May - 17:28:23 10° WNW 17:45:01 46° SW 17:55:26 10° SSE daylight
26 May - 02:46:24 10° SSW 02:50:03 28° SE 02:54:53 10° E visible
26 May - 04:58:15 10° W 05:03:18 39° NNW 05:11:29 10° NE visible
26 May - 07:15:05 10° NW 07:20:14 16° N 07:26:58 10° NNE daylight
26 May - 09:34:35 10° NNW 09:41:31 14° N 09:49:42 10° NE daylight
26 May - 11:50:05 10° NNW 12:04:44 27° NNE 12:20:09 10° ENE daylight
26 May - 14:05:51 10° NW 14:25:51 58° NNE 14:41:49 10° ESE daylight
26 May - 16:24:46 10° WNW 16:44:07 65° SW 16:56:35 10° SE daylight
26 May - 18:50:38 10° WSW 19:00:06 20° SW 19:07:01 10° S visible
27 May - 01:49:25 10° SSE 01:51:01 12° SE 01:52:44 10° ESE night (unlit)
27 May - 03:59:10 10° WSW 04:03:40 62° NNW 04:10:50 10° NE visible
27 May - 06:14:27 10° NW 06:19:10 18° NNW 06:25:36 10° NNE daylight
27 May - 08:34:25 10° NNW 08:38:45 12° N 08:43:46 10° NNE daylight
27 May - 10:49:55 10° NNW 11:01:33 21° NNE 11:14:55 10° ENE daylight
27 May - 13:04:43 10° NW 13:23:16 46° NNE 13:40:18 10° E daylight
27 May - 15:22:00 10° NW 15:42:38 85° SW 15:57:07 10° SE daylight
27 May - 17:44:52 10° W 17:59:27 32° SW 18:09:14 10° SSE daylight
28 May - 03:00:28 10° SW 03:04:32 67° SE 03:10:17 10° ENE visible
28 May - 05:14:17 10° WNW 05:18:41 22° NNW 05:24:58 10° NNE visible
28 May - 07:34:11 10° NNW 07:36:38 11° N 07:39:23 10° N daylight
28 May - 09:50:15 10° NNW 09:58:28 16° NNE 10:08:11 10° NE daylight
28 May - 12:04:10 10° NNW 12:20:31 36° NNE 12:37:33 10° E daylight
28 May - 14:20:01 10° NW 14:40:38 77° NE 14:56:59 10° ESE daylight
28 May - 16:40:22 10° WNW 16:58:29 47° SW 17:10:40 10° SSE daylight
28 May - 19:10:18 10° SW 19:15:16 13° SSW 19:19:28 10° S visible
29 May - 02:02:09 10° SSW 02:05:36 29° SE 02:09:40 10° E visible
29 May - 04:14:34 10° W 04:18:43 29° NNW 04:24:46 10° NNE visible
29 May - 06:33:16 10° NNW 06:35:13 11° N 06:37:22 10° N daylight
29 May - 08:51:27 10° N 08:55:40 12° NNE 09:00:24 10° NNE daylight
29 May - 11:04:09 10° NNW 11:17:42 27° NNE 11:33:19 10° ENE daylight
29 May - 13:18:45 10° NW 13:38:15 61° NE 13:56:02 10° ESE daylight
29 May - 15:36:57 10° WNW 15:57:03 64° SW 16:11:28 10° SE daylight
29 May - 18:02:34 10° W 18:14:15 22° SW 18:22:46 10° SSE visible
30 May - 01:04:36 10° S 01:06:30 13° SSE 01:08:22 10° ESE night (unlit)
30 May - 03:15:16 10° WSW 03:19:14 49° NNW 03:24:48 10° NE visible
30 May - 05:31:58 10° NW 05:34:24 12° NNW 05:37:14 10° N visible
30 May - 10:04:44 10° NNW 10:14:57 20° NNE 10:27:22 10° ENE daylight
30 May - 12:18:08 10° NW 12:35:44 47° NNE 12:54:03 10° ESE daylight
30 May - 14:34:31 10° WNW 14:55:10 83° SW 15:11:39 10° SE daylight
30 May - 16:56:53 10° W 17:13:03 34° SW 17:24:31 10° SSE daylight
31 May - 02:16:17 10° SW 02:20:11 77° SE 02:24:56 10° ENE visible
31 May - 04:31:10 10° NW 04:34:06 15° NNW 04:37:46 10° NNE visible
31 May - 09:06:10 10° N 09:12:23 14° NNE 09:19:44 10° NE daylight
31 May - 11:18:07 10° NNW 11:33:13 36° NNE 11:50:46 10° E daylight
31 May - 13:32:58 10° NW 13:52:55 79° NE 14:11:07 10° ESE daylight
31 May - 15:52:35 10° WNW 16:11:31 47° SW 16:25:33 10° SSE daylight
31 May - 18:21:44 10° WSW 18:29:37 15° SSW 18:35:56 10° S visible
01 Jun - 01:17:36 10° SSW 01:21:15 32° SE 01:24:56 10° E night (unlit)
01 Jun - 03:30:58 10° WNW 03:34:17 22° NNW 03:38:31 10° NNE visible
01 Jun - 10:18:42 10° NNW 10:30:50 26° NNE 10:45:58 10° E daylight
01 Jun - 12:32:10 10° NW 12:50:31 63° NE 13:09:43 10° ESE daylight
01 Jun - 14:49:31 10° WNW 15:09:38 63° SW 15:25:58 10° SE daylight
01 Jun - 17:14:32 10° W 17:28:03 24° SSW 17:38:12 10° SSE daylight
